Hourly Data Report for February 25, 2004

TORONTO CITY
ONTARIO

43°40'00.000" N
79°24'00.000" W
112.50 m
6158355
71508
XTO

Download Data

Hourly Data (February 2004)
Hourly Data Report for February 25, 2004
TIME
LST
Temp Definition
°C
Dew Point Definition
°C
Rel Hum Definition
%
Precip. Amount Definition
mm

Wind Dir Definition
10's deg

Wind Spd Definition
km/h
Visibility Definition
km
Stn Press Definition
kPa
Hmdx Definition


Wind Chill Definition


Weather Definition


00:00 -3.5 -10.2 60   LegendMM LegendMM LegendMM 101.10     LegendNANA
01:00 -3.5 -9.8 62   LegendMM LegendMM LegendMM 101.08     LegendNANA
02:00 -3.4 -8.6 67   LegendMM LegendMM LegendMM 101.10     LegendNANA
03:00 -3.7 -8.9 67   LegendMM LegendMM LegendMM 101.12     LegendNANA
04:00 -3.8 -8.4 70   LegendMM LegendMM LegendMM 101.15     LegendNANA
05:00 -3.8 -7.3 77   LegendMM LegendMM LegendMM 101.21     LegendNANA
06:00 -3.8 -7.2 77   LegendMM LegendMM LegendMM 101.27     LegendNANA
07:00 -4.0 -6.9 80   LegendMM LegendMM LegendMM 101.30     LegendNANA
08:00 -3.3 -6.3 80   LegendMM LegendMM LegendMM 101.34     LegendNANA
09:00 -1.7 -6.5 70   LegendMM LegendMM LegendMM 101.37     LegendNANA
10:00 -0.1 -6.6 62   LegendMM LegendMM LegendMM 101.40     LegendNANA
11:00 1.2 -6.5 56   LegendMM LegendMM LegendMM 101.44     LegendNANA
12:00 2.0 -6.4 54   LegendMM LegendMM LegendMM 101.46     LegendNANA
13:00 3.7 -5.8 50   LegendMM LegendMM LegendMM 101.43     LegendNANA
14:00 3.6 -4.9 54   LegendMM LegendMM LegendMM 101.40     LegendNANA
15:00 3.8 -4.3 55   LegendMM LegendMM LegendMM 101.40     LegendNANA
16:00 3.2 -3.9 60   LegendMM LegendMM LegendMM 101.42     LegendNANA
17:00 3.1 -3.6 61   LegendMM LegendMM LegendMM 101.44     LegendNANA
18:00 2.4 -3.6 65   LegendMM LegendMM LegendMM 101.43     LegendNANA
19:00 1.8 -3.6 67   LegendMM LegendMM LegendMM 101.47     LegendNANA
20:00 1.3 -3.7 69   LegendMM LegendMM LegendMM 101.48     LegendNANA
21:00 0.8 -3.7 72   LegendMM LegendMM LegendMM 101.50     LegendNANA
22:00 -0.1 -3.6 77   LegendMM LegendMM LegendMM 101.51     LegendNANA
23:00 -0.5 -3.8 78   LegendMM LegendMM LegendMM 101.54     LegendNANA

Notes on Data Quality.

Legend

  • E = Estimated
  • M = Missing
  • NA = Not Available*
  • [empty] = Indicates an unobserved value
Date modified: